QPF
0.00 0.00 0.00 0.00 0.00 0.00 0.00 0.00 0.00 0.00 0.00 0.00 0.00 0.00 0.00 0.00 0.00 0.00 0.00 0.00 0.00 0.00 0.00 0.00 0.00 0.00 0.00 0.00 0.00 0.00 0.00 0.00 0.00 0.00 0.00 0.00 0.00 0.00 0.00 0.00 0.00 0.00 0.00
0.00 0.00 0.00 0.00 0.00 0.00 0.00 0.00 0.00 0.00 0.00 0.00 0.00 0.00 0.00 0.00 0.00 0.00 0.00 0.00 0.00 0.00 0.00 0.00 0.00 0.00 0.00 0.00 0.00 0.00 0.00 0.00 0.00 0.00 0.00 0.00 0.00 0.00 0.00 0.00 0.00 0.00 0.00
0.00 0.00 0.00 0.00 0.00 0.00 0.00 0.00 0.00 0.00 0.00 0.00 0.00 0.00 0.00 0.00 0.00 0.00 0.00 0.00 0.00 0.00 0.00 0.00 0.00 0.00 0.00 0.00 0.00 0.00 0.00 0.00 0.00 0.00 0.00 0.00 0.00 0.00 0.00 0.00 0.00 0.00 0.00
0.00 0.00 0.00 0.00 0.00 0.00 0.00 0.00 0.00 0.00 0.00 0.00 0.00 0.00 0.00 0.00 0.00 0.00 0.00 0.00 0.00 0.00 0.00 0.00 0.00 0.00 0.00 0.00 0.00 0.00 0.00 0.00 0.00 0.00 0.00 0.00 0.00 0.00 0.00 0.00 0.00 0.00 0.00
0.00 0.00 0.00 0.00 0.00 0.00 0.00 0.00 0.00 0.00 0.00 0.00 0.00 0.00 0.00 0.00 0.00 0.00 0.00 0.00 0.00 0.00 0.00 0.00 0.00 0.00 0.00 0.00 0.00 0.00 0.00 0.00 0.00 0.00 0.00 0.00 0.00 0.00 0.00 0.00 0.00 0.00 0.00
0.00 0.00 0.00 0.00 0.00 0.00 0.00 0.00 0.00 0.00 0.00 0.00 0.00 0.00 0.00 0.00 0.00 0.00 0.00 0.00 0.00 0.00 0.00 0.00 0.00 0.00 0.00 0.00 0.00 0.00 0.00 0.00 0.00 0.00 0.00 0.00 0.00 0.00 0.00 0.00 0.00 0.00 0.00
0.00 0.00 0.00 0.00 0.00 0.00 0.00 0.00 0.00 0.00 0.00 0.00 0.00 0.00 0.00 0.00 0.00 0.00 0.00 0.00 0.00 0.00 0.00 0.00 0.00 0.00 0.00 0.00 0.00 0.00 0.00 0.00 0.00 0.00 0.00 0.00 0.00 0.00 0.00 0.00 0.00 0.00 0.00
0.00 0.00 0.00 0.00 0.00 0.00 0.00 0.00 0.00 0.00 0.00 0.00 0.00 0.00 0.00 0.00 0.00 0.00 0.00 0.00 0.00 0.00 0.00 0.00 0.00 0.00 0.00 0.00 0.00 0.00 0.00 0.00 0.00 0.00 0.00 0.00 0.00 0.00 0.00 0.00 0.00 0.00 0.00
0.00 0.00 0.00 0.00 0.00 0.00 0.00 0.00 0.00 0.00 0.00 0.00 0.00 0.00 0.00 0.00 0.00 0.00 0.00 0.00 0.00 0.00 0.00 0.00 0.00 0.00 0.00 0.00 0.00 0.00 0.00 0.00 0.00 0.00 0.00 0.00 0.00 0.00 0.00 0.00 0.00 0.00 0.00
0.00 0.00 0.00 0.00 0.00 0.00 0.00 0.00 0.00 0.00 0.00 0.00 0.00 0.00 0.00 0.00 0.00 0.00 0.00 0.00 0.00 0.00 0.00 0.00 0.00 0.00 0.00 0.00 0.00 0.00 0.00 0.00 0.00 0.00 0.00 0.00 0.00 0.00 0.00 0.00 0.00 0.00 0.00
0.00 0.00 0.00 0.00 0.00 0.00 0.00 0.00 0.00 0.00 0.00 0.00 0.00 0.00 0.00 0.00 0.00 0.00 0.00 0.00 0.00 0.00 0.00 0.00 0.00 0.00 0.00 0.00 0.00 0.00 0.00 0.00 0.00 0.00 0.00 0.00 0.00 0.00 0.00 0.00 0.00 0.00 0.00
0.00 0.00 0.00 0.00 0.00 0.00 0.00 0.00 0.00 0.00 0.00 0.00 0.00 0.00 0.00 0.00 0.00 0.00 0.00 0.00 0.00 0.00 0.00 0.00 0.00 0.00 0.00 0.00 0.00 0.00 0.00 0.00 0.00 0.00 0.00 0.00 0.00 0.00 0.00 0.00 0.00 0.00 0.00
0.00 0.00 0.00 0.00 0.00 0.00 0.00 0.00 0.00 0.00 0.00 0.00 0.00 0.00 0.00 0.00 0.00 0.00 0.00 0.00 0.00 0.00 0.00 0.00 0.00 0.00 0.00 0.00 0.00 0.00 0.00 0.00 0.00 0.00 0.00 0.00 0.00 0.00 0.00 0.00 0.00 0.00 0.00
0.00 0.00 0.00 0.00 0.00 0.00 0.00 0.00 0.00 0.00 0.00 0.00 0.00 0.00 0.00 0.00 0.00 0.00 0.00 0.00 0.00 0.00 0.00 0.00 0.00 0.00 0.00 0.00 0.00 0.00 0.00 0.00 0.00 0.00 0.00 0.00 0.00 0.00 0.00 0.00 0.00 0.00 0.01
0.00 0.00 0.00 0.00 0.00 0.00 0.00 0.00 0.00 0.00 0.00 0.00 0.00 0.00 0.00 0.00 0.00 0.00 0.00 0.00 0.00 0.00 0.00 0.00 0.00 0.00 0.00 0.00 0.00 0.00 0.00 0.00 0.00 0.00 0.00 0.00 0.00 0.01 0.01 0.01 0.02 0.02 0.03
0.00 0.00 0.00 0.00 0.00 0.00 0.00 0.00 0.00 0.00 0.00 0.00 0.00 0.00 0.00 0.00 0.00 0.00 0.00 0.00 0.00 0.00 0.00 0.00 0.00 0.00 0.00 0.00 0.00 0.00 0.00 0.00 0.01 0.01 0.01 0.01 0.01 0.01 0.02 0.04 0.04 0.06 0.08
0.00 0.00 0.00 0.00 0.00 0.00 0.00 0.00 0.00 0.00 0.00 0.00 0.00 0.00 0.00 0.00 0.00 0.00 0.00 0.00 0.00 0.00 0.00 0.00 0.00 0.00 0.00 0.00 0.00 0.00 0.01 0.01 0.01 0.01 0.01 0.01 0.01 0.01 0.01 0.02 0.02 0.03 0.05
0.00 0.00 0.00 0.00 0.00 0.00 0.00 0.00 0.00 0.00 0.00 0.00 0.00 0.00 0.00 0.00 0.00 0.00 0.00 0.00 0.00 0.00 0.00 0.00 0.00 0.00 0.00 0.00 0.00 0.01 0.01 0.01 0.01 0.01 0.01 0.01 0.01 0.01 0.01 0.01 0.01 0.01 0.01
0.00 0.00 0.00 0.00 0.00 0.00 0.00 0.00 0.00 0.00 0.00 0.00 0.00 0.00 0.00 0.00 0.00 0.00 0.00 0.00 0.00 0.00 0.00 0.00 0.00 0.00 0.00 0.00 0.00 0.01 0.01 0.01 0.01 0.00 0.00 0.01 0.01 0.01 0.02 0.03 0.03 0.02 0.01
0.00 0.00 0.00 0.00 0.00 0.00 0.00 0.00 0.00 0.00 0.00 0.00 0.00 0.00 0.00 0.00 0.00 0.00 0.00 0.00 0.00 0.00 0.00 0.00 0.00 0.00 0.00 0.00 0.00 0.01 0.01 0.01 0.01 0.01 0.01 0.01 0.02 0.03 0.04 0.04 0.04 0.03 0.01
0.00 0.00 0.00 0.00 0.00 0.00 0.00 0.00 0.00 0.00 0.00 0.00 0.00 0.00 0.00 0.00 0.00 0.00 0.00 0.00 0.00 0.00 0.00 0.00 0.00 0.00 0.00 0.00 0.00 0.01 0.01 0.02 0.03 0.03 0.03 0.02 0.03 0.04 0.04 0.05 0.05 0.05 0.05
0.00 0.00 0.00 0.00 0.00 0.00 0.00 0.00 0.00 0.00 0.00 0.00 0.00 0.00 0.00 0.00 0.00 0.00 0.00 0.00 0.00 0.00 0.00 0.00 0.00 0.00 0.00 0.00 0.00 0.01 0.02 0.03 0.04 0.03 0.02 0.02 0.03 0.04 0.06 0.06 0.06 0.07 0.08
0.00 0.00 0.00 0.00 0.00 0.00 0.00 0.00 0.00 0.00 0.00 0.00 0.00 0.00 0.00 0.00 0.00 0.00 0.00 0.00 0.00 0.00 0.00 0.00 0.00 0.00 0.00 0.00 0.01 0.01 0.02 0.03 0.03 0.02 0.03 0.04 0.05 0.05 0.04 0.03 0.04 0.05 0.05
0.00 0.00 0.00 0.00 0.00 0.00 0.00 0.00 0.00 0.00 0.00 0.00 0.00 0.00 0.00 0.00 0.00 0.00 0.00 0.00 0.00 0.00 0.00 0.01 0.01 0.01 0.01 0.01 0.01 0.01 0.02 0.03 0.03 0.03 0.03 0.03 0.03 0.02 0.02 0.02 0.02 0.02 0.02
0.00 0.00 0.00 0.00 0.00 0.00 0.00 0.00 0.00 0.00 0.00 0.00 0.00 0.00 0.00 0.00 0.00 0.00 0.00 0.00 0.00 0.00 0.01 0.02 0.02 0.03 0.03 0.02 0.03 0.04 0.04 0.04 0.05 0.05 0.04 0.03 0.02 0.02 0.01 0.01 0.01 0.02 0.02
0.00 0.00 0.00 0.00 0.00 0.00 0.00 0.00 0.00 0.00 0.00 0.00 0.00 0.00 0.00 0.00 0.00 0.00 0.00 0.00 0.00 0.00 0.00 0.01 0.01 0.02 0.02 0.02 0.03 0.03 0.04 0.04 0.05 0.05 0.04 0.03 0.02 0.02 0.02 0.02 0.02 0.02 0.02
MSLP
1018.57 1018.50 1018.47 1018.49 1018.58 1018.74 1018.95 1019.20 1019.47 1019.74 1019.99 1020.20 1020.39 1020.54 1020.68 1020.80 1020.92 1021.05 1021.17 1021.28 1021.38 1021.47 1021.54 1021.59 1021.64 1021.68 1021.72 1021.76 1021.78 1021.77 1021.71 1021.56 1021.32 1020.98 1020.56 1020.08 1019.58 1019.10 1018.68 1018.34 1018.10 1017.95 1017.88
1018.97 1018.95 1018.95 1018.98 1019.05 1019.17 1019.33 1019.52 1019.74 1019.96 1020.16 1020.33 1020.47 1020.59 1020.68 1020.76 1020.83 1020.91 1020.98 1021.06 1021.12 1021.18 1021.23 1021.27 1021.30 1021.34 1021.38 1021.41 1021.44 1021.42 1021.35 1021.19 1020.94 1020.57 1020.11 1019.58 1019.00 1018.43 1017.90 1017.45 1017.11 1016.87 1016.74
1019.31 1019.35 1019.38 1019.43 1019.49 1019.58 1019.71 1019.86 1020.03 1020.21 1020.37 1020.51 1020.62 1020.70 1020.75 1020.78 1020.81 1020.83 1020.85 1020.87 1020.89 1020.91 1020.93 1020.94 1020.96 1020.97 1020.99 1021.01 1021.02 1021.00 1020.92 1020.76 1020.50 1020.13 1019.66 1019.10 1018.48 1017.84 1017.23 1016.70 1016.25 1015.92 1015.71
1019.52 1019.63 1019.72 1019.79 1019.86 1019.94 1020.04 1020.16 1020.30 1020.45 1020.59 1020.71 1020.79 1020.84 1020.86 1020.85 1020.82 1020.78 1020.75 1020.71 1020.68 1020.66 1020.63 1020.61 1020.59 1020.57 1020.55 1020.54 1020.52 1020.47 1020.38 1020.22 1019.97 1019.62 1019.16 1018.61 1017.99 1017.33 1016.68 1016.08 1015.55 1015.12 1014.81
1019.59 1019.79 1019.94 1020.05 1020.13 1020.21 1020.30 1020.41 1020.53 1020.66 1020.78 1020.88 1020.95 1020.97 1020.96 1020.91 1020.84 1020.75 1020.66 1020.57 1020.49 1020.42 1020.35 1020.28 1020.21 1020.14 1020.07 1020.01 1019.94 1019.85 1019.73 1019.57 1019.33 1019.01 1018.59 1018.08 1017.50 1016.86 1016.20 1015.56 1014.97 1014.46 1014.04
1019.55 1019.84 1020.06 1020.21 1020.33 1020.41 1020.50 1020.59 1020.70 1020.81 1020.92 1021.01 1021.07 1021.08 1021.04 1020.96 1020.85 1020.72 1020.58 1020.45 1020.32 1020.20 1020.08 1019.96 1019.83 1019.70 1019.57 1019.43 1019.30 1019.15 1018.99 1018.81 1018.58 1018.29 1017.93 1017.48 1016.96 1016.37 1015.74 1015.09 1014.47 1013.89 1013.39
1019.41 1019.79 1020.09 1020.30 1020.45 1020.55 1020.64 1020.73 1020.83 1020.93 1021.03 1021.11 1021.15 1021.15 1021.09 1020.99 1020.84 1020.68 1020.50 1020.33 1020.16 1020.00 1019.84 1019.66 1019.48 1019.28 1019.07 1018.86 1018.64 1018.42 1018.20 1017.98 1017.74 1017.47 1017.16 1016.79 1016.34 1015.82 1015.24 1014.62 1013.98 1013.36 1012.79
1019.22 1019.69 1020.06 1020.33 1020.52 1020.65 1020.75 1020.83 1020.92 1021.02 1021.11 1021.18 1021.22 1021.20 1021.13 1021.00 1020.84 1020.64 1020.44 1020.23 1020.03 1019.83 1019.62 1019.40 1019.16 1018.90 1018.61 1018.30 1017.99 1017.68 1017.39 1017.11 1016.85 1016.59 1016.30 1015.98 1015.61 1015.16 1014.65 1014.07 1013.45 1012.81 1012.20
1019.02 1019.57 1020.01 1020.34 1020.57 1020.72 1020.84 1020.93 1021.02 1021.11 1021.20 1021.26 1021.28 1021.25 1021.17 1021.02 1020.83 1020.61 1020.38 1020.14 1019.91 1019.67 1019.43 1019.17 1018.88 1018.55 1018.19 1017.79 1017.39 1016.98 1016.60 1016.25 1015.94 1015.65 1015.38 1015.09 1014.77 1014.39 1013.94 1013.42 1012.83 1012.21 1011.57
1018.83 1019.44 1019.94 1020.32 1020.59 1020.78 1020.92 1021.03 1021.12 1021.22 1021.30 1021.35 1021.37 1021.32 1021.22 1021.05 1020.84 1020.59 1020.32 1020.05 1019.78 1019.51 1019.23 1018.93 1018.59 1018.22 1017.79 1017.33 1016.84 1016.35 1015.88 1015.44 1015.06 1014.72 1014.42 1014.14 1013.85 1013.52 1013.12 1012.65 1012.12 1011.52 1010.91
1018.65 1019.31 1019.86 1020.29 1020.61 1020.83 1021.00 1021.13 1021.24 1021.33 1021.42 1021.47 1021.47 1021.41 1021.28 1021.09 1020.84 1020.54 1020.23 1019.91 1019.60 1019.29 1018.98 1018.64 1018.28 1017.86 1017.40 1016.88 1016.33 1015.76 1015.21 1014.70 1014.23 1013.83 1013.48 1013.17 1012.87 1012.56 1012.20 1011.79 1011.31 1010.77 1010.19
1018.49 1019.18 1019.77 1020.24 1020.60 1020.86 1021.06 1021.22 1021.34 1021.45 1021.53 1021.58 1021.57 1021.49 1021.33 1021.10 1020.80 1020.46 1020.08 1019.71 1019.34 1018.98 1018.63 1018.26 1017.87 1017.44 1016.95 1016.41 1015.83 1015.22 1014.60 1014.01 1013.47 1012.99 1012.57 1012.21 1011.88 1011.56 1011.23 1010.85 1010.43 1009.95 1009.43
1018.34 1019.05 1019.66 1020.17 1020.56 1020.87 1021.10 1021.28 1021.43 1021.55 1021.63 1021.66 1021.64 1021.53 1021.33 1021.05 1020.70 1020.29 1019.85 1019.40 1018.96 1018.55 1018.15 1017.76 1017.35 1016.91 1016.43 1015.89 1015.29 1014.66 1014.01 1013.36 1012.75 1012.19 1011.70 1011.27 1010.90 1010.55 1010.22 1009.88 1009.50 1009.08 1008.63
1018.20 1018.92 1019.55 1020.09 1020.51 1020.84 1021.10 1021.30 1021.46 1021.58 1021.66 1021.68 1021.62 1021.48 1021.25 1020.91 1020.49 1020.01 1019.50 1018.98 1018.47 1017.99 1017.54 1017.11 1016.69 1016.26 1015.79 1015.27 1014.69 1014.06 1013.39 1012.71 1012.05 1011.42 1010.85 1010.35 1009.92 1009.54 1009.20 1008.86 1008.52 1008.16 1007.78
1018.11 1018.83 1019.47 1020.01 1020.45 1020.80 1021.07 1021.27 1021.43 1021.54 1021.59 1021.59 1021.50 1021.32 1021.04 1020.66 1020.18 1019.63 1019.04 1018.44 1017.86 1017.32 1016.82 1016.36 1015.92 1015.49 1015.04 1014.54 1013.99 1013.38 1012.71 1012.02 1011.32 1010.64 1010.01 1009.44 1008.94 1008.52 1008.15 1007.82 1007.51 1007.20 1006.88
1018.08 1018.79 1019.43 1019.97 1020.40 1020.74 1021.00 1021.19 1021.31 1021.39 1021.41 1021.37 1021.25 1021.03 1020.71 1020.28 1019.75 1019.15 1018.50 1017.84 1017.19 1016.58 1016.03 1015.53 1015.08 1014.64 1014.20 1013.72 1013.19 1012.60 1011.95 1011.25 1010.53 1009.81 1009.13 1008.50 1007.95 1007.47 1007.08 1006.74 1006.44 1006.17 1005.90
1018.14 1018.84 1019.45 1019.97 1020.37 1020.68 1020.89 1021.04 1021.11 1021.14 1021.11 1021.02 1020.85 1020.60 1020.24 1019.79 1019.23 1018.59 1017.91 1017.20 1016.50 1015.85 1015.24 1014.70 1014.21 1013.76 1013.31 1012.84 1012.32 1011.74 1011.10 1010.40 1009.66 1008.92 1008.19 1007.52 1006.92 1006.40 1005.97 1005.62 1005.33 1005.08 1004.85
1018.30 1018.97 1019.54 1020.01 1020.36 1020.61 1020.76 1020.82 1020.83 1020.78 1020.69 1020.54 1020.33 1020.04 1019.67 1019.20 1018.64 1017.99 1017.30 1016.57 1015.85 1015.15 1014.51 1013.92 1013.39 1012.90 1012.42 1011.93 1011.41 1010.82 1010.18 1009.47 1008.72 1007.96 1007.20 1006.50 1005.86 1005.31 1004.85 1004.48 1004.18 1003.94 1003.72
1018.55 1019.16 1019.68 1020.07 1020.35 1020.51 1020.57 1020.55 1020.46 1020.33 1020.16 1019.96 1019.70 1019.39 1019.01 1018.55 1018.00 1017.38 1016.70 1015.98 1015.25 1014.54 1013.86 1013.23 1012.65 1012.10 1011.58 1011.05 1010.49 1009.88 1009.22 1008.50 1007.73 1006.95 1006.18 1005.45 1004.78 1004.21 1003.72 1003.34 1003.03 1002.78 1002.57
1018.83 1019.37 1019.81 1020.11 1020.29 1020.35 1020.31 1020.19 1020.01 1019.79 1019.55 1019.29 1019.00 1018.67 1018.30 1017.86 1017.35 1016.76 1016.12 1015.43 1014.72 1014.00 1013.30 1012.63 1011.99 1011.39 1010.80 1010.21 1009.60 1008.95 1008.25 1007.50 1006.72 1005.93 1005.15 1004.40 1003.72 1003.13 1002.64 1002.23 1001.91 1001.66 1001.45
1019.08 1019.54 1019.88 1020.09 1020.16 1020.12 1019.98 1019.76 1019.50 1019.20 1018.89 1018.58 1018.26 1017.92 1017.56 1017.15 1016.68 1016.15 1015.55 1014.90 1014.22 1013.51 1012.80 1012.09 1011.41 1010.74 1010.08 1009.42 1008.75 1008.04 1007.30 1006.53 1005.73 1004.92 1004.14 1003.39 1002.71 1002.11 1001.61 1001.20 1000.87 1000.61 1000.39
1019.24 1019.60 1019.83 1019.94 1019.92 1019.79 1019.56 1019.27 1018.93 1018.57 1018.21 1017.86 1017.52 1017.17 1016.82 1016.43 1016.01 1015.52 1014.98 1014.37 1013.72 1013.03 1012.31 1011.59 1010.86 1010.13 1009.41 1008.68 1007.93 1007.17 1006.39 1005.58 1004.76 1003.95 1003.17 1002.43 1001.76 1001.17 1000.67 1000.26 999.93 999.66 999.44
1019.26 1019.51 1019.65 1019.66 1019.56 1019.36 1019.07 1018.72 1018.34 1017.94 1017.55 1017.17 1016.80 1016.46 1016.10 1015.74 1015.33 1014.88 1014.38 1013.81 1013.19 1012.51 1011.80 1011.05 1010.29 1009.52 1008.74 1007.95 1007.14 1006.33 1005.50 1004.67 1003.84 1003.03 1002.25 1001.53 1000.88 1000.31 999.82 999.42 999.09 998.83 998.61
1019.12 1019.27 1019.31 1019.25 1019.09 1018.84 1018.53 1018.16 1017.75 1017.34 1016.93 1016.53 1016.16 1015.79 1015.43 1015.07 1014.67 1014.24 1013.75 1013.20 1012.60 1011.93 1011.22 1010.47 1009.69 1008.88 1008.05 1007.22 1006.37 1005.51 1004.65 1003.80 1002.96 1002.15 1001.39 1000.69 1000.06 999.51 999.04 998.66 998.34 998.09 997.88
1018.83 1018.89 1018.86 1018.75 1018.55 1018.29 1017.96 1017.59 1017.20 1016.79 1016.38 1015.98 1015.58 1015.20 1014.83 1014.44 1014.03 1013.59 1013.10 1012.55 1011.95 1011.30 1010.59 1009.83 1009.03 1008.20 1007.35 1006.48 1005.60 1004.72 1003.83 1002.97 1002.13 1001.33 1000.58 999.90 999.29 998.77 998.32 997.96 997.67 997.43 997.24
1018.45 1018.43 1018.34 1018.20 1017.99 1017.73 1017.42 1017.08 1016.70 1016.31 1015.91 1015.50 1015.10 1014.69 1014.29 1013.87 1013.43 1012.96 1012.45 1011.89 1011.29 1010.63 1009.92 1009.16 1008.35 1007.52 1006.65 1005.76 1004.86 1003.96 1003.07 1002.20 1001.36 1000.57 999.83 999.17 998.59 998.09 997.67 997.32 997.05 996.84 996.67
Thickness
5675 5675 5676 5675 5673 5670 5667 5663 5659 5654 5649 5645 5640 5636 5633 5630 5626 5623 5620 5617 5614 5610 5606 5604 5602 5599 5596 5594 5592 5590 5587 5585 5582 5581 5586 5593 5595 5595 5593 5589 5587 5587 5585
5669 5668 5668 5667 5665 5661 5658 5655 5651 5646 5641 5637 5633 5629 5626 5623 5621 5617 5614 5611 5608 5605 5601 5598 5596 5594 5591 5588 5585 5582 5580 5577 5573 5571 5575 5586 5595 5597 5590 5584 5581 5579 5577
5663 5661 5660 5657 5655 5651 5648 5645 5641 5637 5632 5628 5623 5619 5617 5615 5613 5611 5608 5605 5602 5599 5596 5593 5591 5588 5585 5583 5580 5576 5572 5570 5568 5562 5559 5563 5578 5583 5585 5579 5574 5570 5568
5655 5653 5651 5648 5644 5640 5637 5635 5631 5628 5623 5619 5617 5615 5612 5611 5609 5605 5602 5599 5596 5593 5590 5587 5584 5582 5580 5577 5574 5569 5565 5561 5559 5556 5551 5547 5548 5548 5563 5570 5565 5561 5559
5648 5645 5642 5638 5635 5631 5628 5626 5622 5619 5614 5611 5608 5607 5605 5603 5600 5597 5595 5593 5591 5587 5583 5580 5578 5575 5572 5570 5566 5562 5557 5553 5549 5546 5543 5539 5534 5530 5527 5544 5550 5551 5550
5641 5637 5633 5630 5626 5622 5619 5617 5614 5609 5605 5603 5601 5599 5597 5595 5593 5591 5589 5587 5584 5581 5577 5573 5570 5567 5564 5561 5557 5553 5549 5544 5540 5535 5530 5527 5524 5524 5520 5525 5531 5534 5536
5637 5632 5627 5623 5619 5614 5611 5609 5606 5602 5598 5596 5593 5591 5588 5586 5584 5583 5581 5578 5577 5574 5570 5565 5562 5559 5555 5551 5546 5542 5539 5534 5529 5524 5520 5515 5511 5507 5503 5503 5509 5513 5518
5631 5625 5621 5616 5611 5607 5604 5601 5598 5594 5590 5588 5585 5582 5579 5577 5575 5572 5570 5568 5566 5563 5559 5555 5551 5548 5544 5539 5535 5531 5526 5521 5516 5512 5506 5500 5496 5490 5485 5480 5478 5483 5495
5625 5619 5613 5609 5604 5600 5596 5592 5589 5585 5581 5578 5576 5574 5571 5568 5565 5562 5560 5557 5555 5551 5548 5544 5541 5537 5532 5527 5522 5519 5514 5509 5503 5497 5491 5485 5479 5472 5466 5459 5453 5447 5456
5619 5612 5607 5601 5596 5591 5586 5583 5579 5575 5571 5569 5566 5562 5560 5557 5554 5552 5549 5546 5543 5539 5536 5532 5528 5524 5519 5514 5508 5504 5498 5492 5486 5479 5473 5466 5460 5453 5446 5438 5432 5425 5420
5614 5606 5599 5593 5587 5582 5578 5573 5570 5566 5562 5559 5556 5553 5550 5546 5543 5541 5538 5534 5530 5526 5523 5518 5514 5509 5504 5498 5493 5487 5481 5475 5468 5460 5453 5447 5436 5430 5424 5417 5412 5406 5398
5606 5598 5591 5585 5579 5574 5569 5564 5560 5556 5552 5548 5545 5542 5539 5535 5532 5530 5525 5521 5517 5513 5508 5503 5499 5494 5487 5480 5474 5469 5462 5455 5448 5440 5432 5425 5415 5409 5402 5396 5393 5389 5383
5596 5589 5582 5576 5571 5565 5560 5555 5550 5546 5541 5537 5534 5531 5528 5525 5521 5518 5513 5509 5504 5499 5494 5489 5483 5477 5470 5461 5453 5447 5441 5434 5426 5418 5410 5403 5394 5390 5385 5380 5378 5375 5370
5587 5581 5574 5568 5562 5556 5551 5546 5541 5536 5531 5527 5523 5520 5517 5513 5509 5505 5500 5495 5490 5485 5480 5474 5467 5460 5452 5442 5433 5425 5418 5411 5404 5396 5389 5384 5379 5375 5371 5368 5366 5362 5359
5578 5571 5565 5559 5553 5547 5541 5536 5531 5526 5520 5516 5512 5508 5504 5500 5495 5491 5486 5481 5476 5470 5464 5457 5451 5443 5435 5424 5413 5405 5399 5393 5389 5384 5378 5373 5370 5366 5362 5359 5357 5352 5350
5569 5562 5554 5548 5543 5537 5531 5526 5520 5515 5509 5505 5501 5497 5492 5488 5483 5478 5473 5468 5462 5456 5449 5441 5434 5427 5418 5408 5398 5389 5385 5382 5378 5375 5371 5367 5364 5361 5358 5356 5354 5351 5346
5561 5552 5546 5539 5533 5527 5521 5516 5510 5504 5499 5495 5491 5486 5481 5475 5470 5465 5460 5455 5449 5443 5435 5427 5419 5412 5404 5392 5383 5375 5369 5369 5367 5365 5363 5361 5359 5356 5353 5350 5348 5346 5344
5549 5542 5535 5528 5521 5515 5509 5504 5499 5494 5489 5485 5480 5475 5469 5463 5457 5452 5447 5441 5435 5429 5421 5413 5404 5396 5389 5378 5370 5363 5359 5359 5358 5356 5355 5353 5352 5350 5346 5344 5342 5341 5339
5538 5531 5523 5516 5510 5504 5499 5493 5488 5484 5479 5474 5470 5464 5457 5451 5445 5439 5434 5428 5421 5414 5406 5397 5388 5381 5375 5366 5358 5352 5351 5351 5351 5350 5348 5347 5346 5345 5343 5341 5339 5339 5338
5523 5516 5510 5504 5498 5494 5488 5482 5478 5474 5469 5464 5458 5451 5445 5438 5432 5426 5419 5412 5404 5398 5390 5383 5374 5367 5362 5356 5349 5343 5342 5343 5344 5345 5343 5341 5340 5340 5339 5337 5336 5336 5336
5509 5503 5498 5493 5488 5482 5476 5471 5467 5463 5459 5452 5446 5439 5432 5425 5419 5412 5404 5396 5389 5383 5376 5370 5363 5356 5351 5347 5342 5338 5335 5335 5337 5337 5338 5338 5337 5337 5336 5335 5334 5333 5332
5496 5491 5486 5482 5476 5470 5464 5461 5458 5453 5447 5441 5434 5428 5420 5412 5404 5397 5390 5381 5373 5367 5361 5356 5352 5347 5343 5340 5337 5333 5331 5330 5330 5331 5333 5333 5333 5333 5333 5333 5332 5332 5329
5485 5479 5475 5470 5465 5460 5454 5450 5447 5441 5435 5428 5422 5416 5408 5399 5390 5382 5375 5367 5358 5350 5345 5341 5339 5339 5336 5333 5331 5329 5328 5327 5326 5327 5329 5329 5330 5330 5330 5330 5328 5327 5325
5474 5468 5462 5459 5456 5451 5444 5439 5434 5428 5422 5416 5411 5403 5396 5388 5379 5369 5360 5351 5343 5336 5332 5328 5327 5329 5328 5327 5325 5324 5324 5323 5323 5324 5325 5326 5326 5325 5324 5325 5323 5321 5319
5461 5456 5451 5448 5444 5439 5433 5427 5422 5415 5410 5404 5397 5390 5382 5375 5368 5359 5348 5339 5332 5321 5318 5318 5317 5317 5320 5320 5318 5317 5319 5319 5319 5320 5322 5323 5323 5322 5321 5320 5318 5316 5313
5450 5444 5440 5436 5432 5427 5422 5415 5408 5401 5395 5389 5383 5376 5368 5360 5352 5347 5342 5334 5323 5319 5313 5310 5309 5311 5312 5313 5314 5314 5315 5315 5316 5316 5317 5318 5318 5317 5315 5314 5313 5311 5309